Location: Isles
(48.9125°N, 2.8272°E)
Time: 15:05:46
(UTC+00:00)

Cosmos 2315 Rocket - Pass Details

Date: 03 February 2023
Orbit: 965 x 1002 km, 82.9° (Epoch: 29 March)

Event Time Altitude Azimuth Distance (km) Brightness Sun altitude
Rises 18:48:03 0° 161° (SSE) 3,691 6.9 -19.7°
Reaches altitude 10° 18:50:42 10° 154° (SSE) 2,752 6.1 -20.2°
Maximum altitude 18:56:29 39° 88° (E) 1,450 4.4 -21.1°
Drops below altitude 10° 19:02:20 10° 22° (NNE) 2,785 6.2 -22.1°
Sets 19:05:02 0° 15° (NNE) 3,741 6.9 -22.5°
